TimeCST,TemperatureF,Dew PointF,Humidity,Sea Level PressureIn,VisibilityMPH,Wind Direction,Wind SpeedMPH,Gust SpeedMPH,PrecipitationIn,Events,Conditions,WindDirDegrees,DateUTC
12:15 AM,30.6,23.2,74,29.96,10.0,East,9.2,-,N/A,,Overcast,80,2013-03-05 06:15:00
12:35 AM,30.6,23.5,75,29.96,10.0,East,9.2,-,N/A,,Overcast,80,2013-03-05 06:35:00
12:55 AM,30.6,23.7,76,29.95,10.0,East,10.4,-,N/A,,Overcast,90,2013-03-05 06:55:00
1:15 AM,30.6,23.7,76,29.95,10.0,East,10.4,-,N/A,,Overcast,80,2013-03-05 07:15:00
1:35 AM,30.6,24.1,77,29.94,10.0,East,10.4,-,N/A,,Overcast,80,2013-03-05 07:35:00
1:55 AM,30.6,24.3,77,29.93,10.0,East,12.7,-,N/A,,Overcast,80,2013-03-05 07:55:00
2:15 AM,30.6,24.6,79,29.92,10.0,ENE,12.7,-,N/A,,Overcast,70,2013-03-05 08:15:00
2:35 AM,30.4,25.0,80,29.92,10.0,East,11.5,-,N/A,,Overcast,80,2013-03-05 08:35:00
2:55 AM,30.4,25.3,82,29.91,10.0,ENE,12.7,-,N/A,,Overcast,70,2013-03-05 08:55:00
3:15 AM,30.2,25.7,83,29.89,10.0,ENE,12.7,-,N/A,,Overcast,70,2013-03-05 09:15:00
3:35 AM,30.2,26.1,85,29.89,10.0,ENE,12.7,-,N/A,,Overcast,70,2013-03-05 09:35:00
3:55 AM,30.2,26.2,85,29.89,10.0,ENE,11.5,-,N/A,,Overcast,70,2013-03-05 09:55:00
4:15 AM,30.2,26.2,85,29.88,7.0,ENE,12.7,-,N/A,,Overcast,70,2013-03-05 10:15:00
4:35 AM,30.2,26.6,86,29.88,5.0,ENE,11.5,-,N/A,,Overcast,70,2013-03-05 10:35:00
4:55 AM,30.2,26.6,86,29.87,5.0,East,11.5,-,N/A,Snow,Light Snow,80,2013-03-05 10:55:00
5:15 AM,30.2,26.6,86,29.88,2.5,East,10.4,-,N/A,,Overcast,80,2013-03-05 11:15:00
5:35 AM,30.2,27.0,88,29.87,2.5,East,10.4,-,N/A,,Overcast,80,2013-03-05 11:35:00
5:55 AM,29.7,26.6,88,29.86,1.5,ENE,12.7,-,N/A,Snow,Light Snow,70,2013-03-05 11:55:00
6:15 AM,29.7,27.0,90,29.87,1.8,East,9.2,-,N/A,,Overcast,80,2013-03-05 12:15:00
6:35 AM,30.2,26.6,86,29.86,1.0,ENE,10.4,-,N/A,Snow,Light Snow,70,2013-03-05 12:35:00
6:55 AM,30.2,26.6,86,29.87,0.8,ENE,9.2,-,N/A,Snow,Light Snow,70,2013-03-05 12:55:00
7:15 AM,29.3,26.6,90,29.87,0.5,East,6.9,-,N/A,Snow,Light Snow,80,2013-03-05 13:15:00
7:35 AM,29.3,26.8,90,29.88,0.5,East,5.8,-,0.02,Snow,Snow,80,2013-03-05 13:35:00
7:55 AM,29.3,27.0,91,29.88,0.2,ENE,6.9,-,0.04,Snow,Heavy Snow,70,2013-03-05 13:55:00
8:15 AM,29.3,27.0,91,29.87,0.2,ENE,8.1,-,0.01,Snow,Heavy Snow,60,2013-03-05 14:15:00
8:35 AM,29.3,27.1,92,29.87,0.2,ENE,9.2,-,0.02,Snow,Snow,60,2013-03-05 14:35:00
8:55 AM,29.7,27.3,91,29.86,0.5,ENE,9.2,-,0.02,Snow,Snow,70,2013-03-05 14:55:00
9:15 AM,29.7,27.3,91,29.84,0.5,ENE,11.5,-,N/A,Snow,Snow,70,2013-03-05 15:15:00
9:35 AM,29.7,27.3,91,29.84,1.0,ENE,9.2,-,N/A,Snow,Light Snow,70,2013-03-05 15:35:00
9:55 AM,30.2,27.9,91,29.84,0.5,ENE,9.2,-,N/A,Snow,Snow,60,2013-03-05 15:55:00
10:15 AM,30.2,27.9,91,29.83,0.5,ENE,6.9,-,N/A,Snow,Snow,60,2013-03-05 16:15:00
10:35 AM,30.2,28.0,92,29.82,0.5,ENE,9.2,-,0.01,Snow,Snow,60,2013-03-05 16:35:00
10:55 AM,30.2,27.9,91,29.82,0.5,ENE,9.2,-,0.02,Snow,Light Snow,60,2013-03-05 16:55:00
11:15 AM,30.2,28.0,92,29.82,0.5,ENE,6.9,-,0.01,Snow,Snow,60,2013-03-05 17:15:00
11:35 AM,30.2,28.0,92,29.82,0.8,NE,8.1,-,0.01,Snow,Light Snow,50,2013-03-05 17:35:00
11:55 AM,30.2,28.0,92,29.82,0.5,NE,6.9,-,0.03,Snow,Light Snow,50,2013-03-05 17:55:00
12:15 PM,30.2,28.0,92,29.81,0.5,NE,8.1,-,0.01,Snow,Snow,50,2013-03-05 18:15:00
12:35 PM,30.2,28.0,92,29.81,0.5,ENE,9.2,-,0.02,Snow,Light Snow,60,2013-03-05 18:35:00
12:55 PM,30.2,28.0,92,29.80,0.8,ENE,11.5,-,0.02,Snow,Light Snow,60,2013-03-05 18:55:00
1:15 PM,30.2,27.9,91,29.79,0.8,NE,9.2,-,N/A,Snow,Light Snow,50,2013-03-05 19:15:00
1:35 PM,30.2,27.9,91,29.79,1.0,NE,10.4,-,0.01,Snow,Light Snow,40,2013-03-05 19:35:00
1:55 PM,30.2,27.7,90,29.79,1.0,NE,10.4,-,0.01,Snow,Light Snow,50,2013-03-05 19:55:00
2:15 PM,30.2,27.9,91,29.79,0.5,ENE,6.9,-,N/A,Snow,Snow,60,2013-03-05 20:15:00
2:35 PM,30.2,27.7,90,29.79,0.8,ENE,10.4,-,0.01,Snow,Light Snow,60,2013-03-05 20:35:00
2:55 PM,29.5,27.3,92,29.80,1.8,NE,12.7,-,0.01,Snow,Light Snow,40,2013-03-05 20:55:00
3:15 PM,29.1,26.6,90,29.81,1.0,NE,12.7,-,N/A,Snow,Light Snow,40,2013-03-05 21:15:00
3:35 PM,29.1,26.6,90,29.81,1.0,NNE,10.4,-,N/A,,Overcast,30,2013-03-05 21:35:00
3:55 PM,28.9,26.6,91,29.82,1.0,NNE,10.4,-,0.01,Snow,Light Snow,20,2013-03-05 21:55:00
4:15 PM,28.4,26.1,91,29.82,1.0,NNE,12.7,-,N/A,Snow,Light Snow,30,2013-03-05 22:15:00
4:55 PM,28.0,25.7,91,29.84,0.5,North,12.7,-,N/A,Snow,Light Snow,10,2013-03-05 22:55:00
5:15 PM,27.9,25.5,91,29.85,0.8,NNE,16.1,-,N/A,,Overcast,20,2013-03-05 23:15:00
5:35 PM,27.9,25.5,91,29.86,0.8,North,11.5,-,N/A,,Overcast,10,2013-03-05 23:35:00
5:55 PM,27.3,25.0,91,29.87,1.0,North,15.0,-,N/A,Snow,Light Snow,10,2013-03-05 23:55:00
6:15 PM,26.8,24.3,90,29.88,2.5,North,18.4,-,N/A,Snow,Light Snow,360,2013-03-06 00:15:00
6:35 PM,26.6,24.1,90,29.89,3.0,North,12.7,-,N/A,Snow,Light Snow,350,2013-03-06 00:35:00
6:55 PM,26.6,24.1,90,29.90,2.5,NNW,13.8,-,N/A,Snow,Light Snow,340,2013-03-06 00:55:00
7:15 PM,26.6,23.9,90,29.90,1.5,NNW,16.1,-,N/A,Snow,Light Snow,340,2013-03-06 01:15:00
7:35 PM,26.6,23.9,90,29.91,1.5,NNW,16.1,-,N/A,Snow,Light Snow,330,2013-03-06 01:35:00
7:55 PM,25.7,23.4,91,29.92,1.8,NNW,17.3,24.2,N/A,Snow,Light Snow,340,2013-03-06 01:55:00
8:15 PM,25.9,23.4,90,29.92,2.0,NNW,18.4,24.2,N/A,Snow,Light Snow,340,2013-03-06 02:15:00
8:35 PM,26.1,23.4,90,29.93,2.0,NNW,18.4,25.3,N/A,Snow,Light Snow,340,2013-03-06 02:35:00
8:55 PM,26.1,23.4,90,29.94,1.8,NNW,17.3,26.5,N/A,Snow,Light Snow,340,2013-03-06 02:55:00
9:15 PM,25.7,23.0,89,29.95,1.2,NNW,16.1,24.2,N/A,Snow,Light Snow,330,2013-03-06 03:15:00
9:35 PM,25.3,22.6,89,29.96,1.5,NNW,18.4,25.3,N/A,Snow,Light Snow,340,2013-03-06 03:35:00
9:55 PM,25.3,22.6,89,29.97,2.0,NNW,18.4,-,N/A,Snow,Light Snow,340,2013-03-06 03:55:00
10:15 PM,25.3,22.6,89,29.98,2.0,NNW,18.4,26.5,N/A,Snow,Light Snow,340,2013-03-06 04:15:00
10:35 PM,25.3,22.6,89,29.99,2.5,NNW,15.0,-,N/A,Snow,Light Snow,330,2013-03-06 04:35:00
10:55 PM,25.3,22.6,89,29.99,3.0,NNW,16.1,-,N/A,Snow,Light Snow,330,2013-03-06 04:55:00
11:15 PM,25.5,22.1,87,30.00,10.0,NNW,18.4,24.2,N/A,,Overcast,330,2013-03-06 05:15:00
11:35 PM,25.3,21.9,87,30.00,10.0,NNW,16.1,21.9,N/A,,Overcast,330,2013-03-06 05:35:00
11:55 PM,25.3,21.9,87,30.01,10.0,NNW,17.3,25.3,N/A,,Overcast,330,2013-03-06 05:55:00